Weather Roundup
Issued by NWS Springfield, MO

Home | Current Version | Previous Version | Text Only | Print | Product List | Glossary On
Versions: 1 2 3 4 5 6 7 8 9 10 11 12 13 14 15 16 17 18 19 20 21 22 23 24 25 26 27 28 29 30 31 32 33 34 35 36 37 38 39 40 41 42 43 44 45 46 47 48 49 50
000
NZUS99 KSGF 221107
HRRSGF

HOURLY WEATHER
NATIONAL WEATHER SERVICE SPRINGFIELD MO
500 AM CST MON DEC 22 2014

......SGF CWA......

CITY           SKY/WX    TMP DP  RH WIND       PRES   REMARKS
SPRINGFIELD    CLOUDY    43  38  82 SE15      29.66F
JOPLIN         CLOUDY    45  42  89 SE10      29.63F
WEST PLAINS    CLOUDY    43  38  82 SE8       29.73F
ROLLA          LGT RAIN  40  37  89 SE8       29.70F WCI  34
OSAGE BEACH    CLOUDY    45  34  65 SE8       29.70F
BRANSON        CLOUDY    41  37  87 SE3       29.68F

......SURROUNDING SGF CWA......

CITY           SKY/WX    TMP DP  RH WIND       PRES   REMARKS
CHANUTE        CLOUDY    44  43  96 SE8       29.61F FOG
PARSONS        CLOUDY    45  44  97 SE6       29.62F
COFFEYVILLE    CLOUDY    45  44  97 SE9       29.61F FOG
EMPORIA        CLOUDY    42  42 100 SE12      29.58S FOG
GROVE OK       CLOUDY    46  46 100 SE5       29.64F
ROGERS AR      CLOUDY    44  42  93 SE9       29.64F
SILOAM SPRINGS CLOUDY    45  39  81 SE8       29.65F
HARRISON AR    CLOUDY    44  43  96 SE9       29.67F
NEAR YELLVILLE CLOUDY    45  36  70 SE8       29.69F

......KANSAS AND MISSOURI......

CITY           SKY/WX    TMP DP  RH WIND       PRES   REMARKS
KANSAS CTY INT DRIZZLE   41  40  96 SE13      29.62F FOG
DOWNTOWN KC    CLOUDY    43  40  89 SE8       29.63F
COLUMBIA       LGT RAIN  40  36  86 E12       29.72F WCI  33
SEDALIA        CLOUDY    41  37  86 SE10      29.69F
ST JOSEPH      CLOUDY    42  39  89 SE9       29.63F
ST LOUIS       LGT RAIN  42  32  67 SE10      29.81F
SPIRIT OF STL  CLOUDY    42  32  67 SE7       29.79F
KIRKSVILLE     CLOUDY    39  36  89 SE13      29.72F WCI  31
WICHITA        DRIZZLE   45  43  93 SE9       29.55F FOG
TOPEKA         CLOUDY    45  43  93 SE10      29.60F FOG
OLATHE         CLOUDY    41  41 100 S10       29.62F FOG

......TENNESSEE......

CITY           SKY/WX    TMP DP  RH WIND       PRES   REMARKS
MEMPHIS        DRZL/FOG  49  47  93 S8        29.84F VSB 1
NASHVILLE      CLOUDY    48  44  86 SE7       29.96S

......ARKANSAS.......

CITY           SKY/WX    TMP DP  RH WIND       PRES   REMARKS
FAYETTEVILLE   CLOUDY    45  43  93 S3        29.65F
FT SMITH       CLOUDY    47  43  86 NE6       29.66F
LITTLE ROCK    LGT RAIN  47  43  86 SE8       29.78F FOG

......OKLAHOMA.......

CITY           SKY/WX    TMP DP  RH WIND       PRES   REMARKS
TULSA          DRIZZLE   46  46 100 SE9       29.61F FOG
PONCA CITY     CLOUDY    47  45  93 SE9       29.56F FOG
MCALESTER      CLOUDY    51  47  86 S8        29.60F
OKLAHOMA CITY  CLOUDY    49  45  86 SE9       29.52F

......IOWA............

CITY           SKY/WX    TMP DP  RH WIND       PRES   REMARKS
DES MOINES     CLOUDY    41  37  86 S13       29.67F
QUAD CITIES    CLOUDY    36  31  82 SE10      29.82F WCI  28

......ILLINOIS........

CITY           SKY/WX    TMP DP  RH WIND       PRES   REMARKS
QUINCY         CLOUDY    40  32  73 SE13      29.77F WCI  32
CHICAGO        CLOUDY    31  27  85 S10       29.95F WCI  22



USA.gov is the U.S. government's official web portal to all federal, state and local government web resources and services.